This is the latest recevied weather packets stored in our database for station/object DK6GC-10. If no packets are shown the sender has not sent any weather packets the latest 10 day(s).
| Time | Temp. | Humidity | Pressure | Rain* | Wind** | Luminosity | Snow |
|---|---|---|---|---|---|---|---|
| 1788441320 | 27.22° C | 38% | 1022.8 hPa | - | - | - | - |
| 1788440420 | 27.78° C | 40% | 1022.9 hPa | - | - | - | - |
| 1788439520 | 27.22° C | 39% | 1023.1 hPa | - | - | - | - |
| 1788438619 | 27.22° C | 41% | 1023.1 hPa | - | - | - | - |
| 1788437719 | 27.22° C | 42% | 1022.9 hPa | - | - | - | - |
| 1788436868 | 26.67° C | 42% | 1022.9 hPa | - | - | - | - |
| 1788435968 | 26.11° C | 42% | 1022.8 hPa | - | - | - | - |
| 1788435068 | 26.11° C | 43% | 1023.1 hPa | - | - | - | - |
| 1788434168 | 26.11° C | 44% | 1023.2 hPa | - | - | - | - |
| 1788433268 | 26.11° C | 42% | 1023.5 hPa | - | - | - | - |
| 1788432367 | 25.56° C | 43% | 1023.8 hPa | - | - | - | - |
| 1788431466 | 26.67° C | 42% | 1023.9 hPa | - | - | - | - |
| 1788430566 | 25.56° C | 43% | 1023.8 hPa | - | - | - | - |
| 1788429666 | 26.11° C | 43% | 1024.1 hPa | - | - | - | - |
| 1788428766 | 25.56° C | 45% | 1024.3 hPa | - | - | - | - |
| 1788427865 | 25.56° C | 45% | 1024.2 hPa | - | - | - | - |
| 1788426967 | 24.44° C | 49% | 1024 hPa | - | - | - | - |
| 1788426065 | 23.33° C | 51% | 1024.3 hPa | - | - | - | - |
| 1788425165 | 23.89° C | 53% | 1024.4 hPa | - | - | - | - |
| 1788424265 | 22.78° C | 53% | 1024.6 hPa | - | - | - | - |
| 1788423365 | 22.78° C | 55% | 1024.3 hPa | - | - | - | - |
| 1788422464 | 22.22° C | 61% | 1024 hPa | - | - | - | - |
| 1788421564 | 21.11° C | 63% | 1024.2 hPa | - | - | - | - |
| 1788420664 | 19.44° C | 67% | 1024.7 hPa | - | - | - | - |
| 1788419764 | 18.89° C | 72% | 1024.6 hPa | - | - | - | - |
* Rain since midnight (hover to see other rain measurements)
** Current wind speed in m/s (hover to see current wind gust speed)